Weather History for KAKR - February, 2014

Change the Weather History Date:

Monday, February 10, 2014

  Actual Average (KCAK) Record (KCAK)
Temperature  
Mean Temperature 11 °F 28 °F  
Max Temperature 19 °F 36 °F 63 °F (1932)
Min Temperature 3 °F 20 °F -20 °F (1899)
Degree Days  
Heating Degree Days 54 37  
Month to date heating degree days 377  
Since 1 July heating degree days 3913  
Cooling Degree Days 0 0  
Month to date cooling degree days 0  
Year to date cooling degree days 0  
Moisture  
Dew Point 6 °F    
Average Humidity 75    
Maximum Humidity 92    
Minimum Humidity 57    
Precipitation  
Precipitation 0.00 in 0.08 in - ()
Month to date precipitation 0.82  
Year to date precipitation 3.43  
Snow  
Snow 0.00 in 0.30 in - ()
Month to date snowfall 3.7  
Since 1 July snowfall 29.7  
Snow Depth -    
Sea Level Pressure  
Sea Level Pressure 30.27 in    
Wind  
Wind Speed 6 mph (West)    
Max Wind Speed 12 mph    
Max Gust Speed -    
Visibility 8 miles    
Events Snow    
T = Trace of Precipitation, MM = Missing Value Source: NWS Daily Summary

Daily Weather History Graph

Daily Weather History Graph

Search for Another Location

Airport or City:

Trip Planner

Search our weather history database for the weather conditions in past years. The results will help you decide how hot, cold, wet, or windy it might be!

Date:

Astronomy

Feb. 10, 2014 Rise Set
Actual Time 7:26 AM EST 5:54 PM EST
Civil Twilight 6:58 AM EST 6:22 PM EST
Nautical Twilight 6:25 AM EST 6:55 PM EST
Astronomical Twilight 5:53 AM EST 7:27 PM EST
Moon 2:21 PM EST (2/10) 4:19 AM EST (2/10)
Length of Visible Light 11h 24m
Length of Day
10h 27m
Waxing Gibbous, 84% of the Moon is Illuminated
Feb 10
Waxing Gibbous
Feb 14
Full
Feb 22
Last Quarter
Mar 1
New
Mar 8
First Quarter

Hourly Weather History & Observations

Time (EST) Temp. Windchill Dew Point Humidity Pressure Visibility Wind Dir Wind Speed Gust Speed Precip Events Conditions
12:54 AM 16.0 °F 5.3 °F 10.0 °F 77% 30.19 in 8.0 mi WSW 8.1 mph - N/A   Overcast
1:54 AM 15.1 °F 2.5 °F 9.0 °F 77% 30.18 in 7.0 mi West 10.4 mph - N/A Snow Light Snow
2:54 AM 14.0 °F 1.2 °F 8.1 °F 77% 30.20 in 9.0 mi West 10.4 mph - N/A   Overcast
3:54 AM 12.0 °F -0.4 °F 7.0 °F 80% 30.20 in 9.0 mi West 9.2 mph - N/A   Overcast
4:54 AM 10.0 °F - 5.0 °F 80% 30.21 in 8.0 mi Calm Calm - N/A   Mostly Cloudy
5:41 AM 9.0 °F - 6.1 °F 88% 30.15 in 8.0 mi Calm Calm - N/A   Mostly Cloudy
5:52 AM 3.2 °F - 1.4 °F 92% 30.16 in 8.0 mi Calm Calm - N/A   Scattered Clouds
5:54 AM 3.0 °F - -0.0 °F 87% 30.22 in 7.0 mi Calm Calm - N/A   Scattered Clouds
6:54 AM 9.0 °F 2.4 °F 5.0 °F 84% 30.24 in 6.0 mi SSW 3.5 mph - N/A   Overcast
7:54 AM 10.0 °F 1.8 °F 6.1 °F 84% 30.26 in 5.0 mi WSW 4.6 mph - N/A Snow Light Snow
8:13 AM 10.0 °F - 6.1 °F 84% 30.22 in 6.0 mi Calm Calm - N/A   Overcast
8:35 AM 10.9 °F 2.9 °F 8.1 °F 88% 30.22 in 4.0 mi NW 4.6 mph - N/A   Overcast
8:54 AM 10.9 °F 4.7 °F 8.1 °F 88% 30.29 in 5.0 mi West 3.5 mph - N/A   Overcast
9:44 AM 12.0 °F 4.1 °F 7.0 °F 80% 30.23 in 2.5 mi WSW 4.6 mph - N/A Snow Light Snow
9:54 AM 12.0 °F 1.5 °F 8.1 °F 84% 30.30 in 3.0 mi West 6.9 mph - N/A   Overcast
10:54 AM 14.0 °F 3.9 °F 8.1 °F 77% 30.31 in 3.0 mi WNW 6.9 mph - N/A Snow Light Snow
11:21 AM 16.0 °F 5.3 °F 8.1 °F 71% 30.26 in 7.0 mi West 8.1 mph - N/A   Overcast
11:54 AM 16.0 °F 6.3 °F 8.1 °F 71% 30.31 in 9.0 mi Variable 6.9 mph - N/A   Mostly Cloudy
12:54 PM 17.1 °F 7.6 °F 7.0 °F 65% 30.29 in 8.0 mi NW 6.9 mph - N/A   Mostly Cloudy
1:08 PM 18.0 °F 7.7 °F 7.0 °F 62% 30.23 in 10.0 mi NW 8.1 mph - N/A   Mostly Cloudy
1:54 PM 18.0 °F 9.8 °F 6.1 °F 60% 30.28 in 9.0 mi NW 5.8 mph - N/A   Overcast
2:05 PM 19.0 °F 6.8 °F 6.1 °F 57% 30.22 in 10.0 mi WNW 11.5 mph - N/A   Overcast
2:54 PM 18.0 °F 11.1 °F 6.1 °F 60% 30.28 in 10.0 mi WNW 4.6 mph - N/A   Overcast
3:54 PM 17.1 °F 7.6 °F 5.0 °F 59% 30.29 in 10.0 mi WNW 6.9 mph - N/A   Scattered Clouds
4:54 PM 18.0 °F 6.9 °F 6.1 °F 60% 30.31 in 10.0 mi WNW 9.2 mph - N/A   Overcast
5:54 PM 17.1 °F 5.8 °F 5.0 °F 59% 30.33 in 10.0 mi WNW 9.2 mph - N/A   Overcast
6:54 PM 16.0 °F 6.3 °F 6.1 °F 65% 30.34 in 10.0 mi WNW 6.9 mph - N/A   Overcast
7:54 PM 15.1 °F 1.8 °F 5.0 °F 64% 30.35 in 10.0 mi WNW 11.5 mph - N/A   Mostly Cloudy
8:54 PM 10.9 °F 0.2 °F 3.9 °F 73% 30.36 in 8.0 mi West 6.9 mph - N/A   Clear
9:54 PM 8.1 °F -2.0 °F 1.9 °F 76% 30.37 in 7.0 mi WSW 5.8 mph - N/A   Clear
10:54 PM 3.9 °F -6.9 °F -0.0 °F 84% 30.39 in 7.0 mi WSW 5.8 mph - N/A   Clear
11:54 PM 6.1 °F -4.3 °F 1.0 °F 80% 30.39 in 6.0 mi WSW 5.8 mph - N/A   Haze